Reflectivity
-20 -20 -10 -20 5 23 23 16 12 -20 -20 -20 -20 -20 -20 -20 -20 21 -20 -20 -20 -20 -20 -20 -18 -20 -20 24 23 -2 -16 -20 -7 -20 -20 -20 -20 -18 -10 -20 -20 -20 -20 -11 -20 6 -20 -20 -20
-20 -13 7 -3 18 -7 35 16 -20 -20 -20 -16 -11 -20 -20 -20 -20 -20 -20 -20 -20 -20 -20 -20 4 -9 -20 -3 16 33 14 -20 -14 -12 -20 -20 -19 -17 -20 -20 -20 -20 -20 -4 -7 -20 -20 -20 -20
-20 -20 -17 27 19 30 23 -5 -3 -20 -20 16 -2 -20 -20 -20 -20 -20 -17 -20 -20 -20 -20 -20 -20 27 -16 -11 -15 -19 2 -1 -20 -20 -20 -20 -19 -20 -20 -20 -20 -20 -5 -20 -2 -20 -20 -20 -20
-20 -14 11 29 19 39 16 35 3 -20 -3 -20 -20 -20 -20 -20 -20 -20 -20 -20 -20 -20 -20 -19 -20 22 -12 -19 -15 6 -20 -20 -20 -6 -20 -17 -2 -15 -20 -20 -13 -20 -20 -19 4 3 -4 -20 -20
16 -18 22 2 27 19 26 12 -14 -20 -16 -20 -20 -20 -20 -20 -20 -20 -20 -20 -20 -20 -20 -20 -20 -20 28 -20 -12 -20 -20 -20 -20 1 -17 -20 -20 -20 -20 -20 8 33 11 -20 -4 -5 -20 -20 -20
-20 -17 -20 -0 16 15 33 33 15 -20 -20 -20 -20 -20 -20 -13 -20 -20 -20 -10 -16 -20 -20 -20 15 29 10 11 -13 -20 -20 -20 -10 -20 -20 -20 -20 -19 35 1 -20 -20 -13 -20 -20 -20 -20 -20 -20
-20 -15 15 -17 5 11 38 5 -5 -20 -20 -11 -20 -20 -20 -15 5 13 -13 9 -20 -20 -20 -20 -19 -12 -20 -20 -20 11 -7 -20 -8 -20 -20 -20 -14 -20 -20 -20 -13 -20 -20 -20 -20 -20 -20 -20 -20
-14 2 -20 -20 28 19 24 -6 -20 21 -20 -20 -20 -20 -20 -20 -20 -0 -5 13 -20 -20 -20 -20 -20 -20 -20 -19 -18 5 -20 8 -20 -20 -20 -17 -10 -20 -20 -20 -9 -20 -20 -20 -20 -20 -20 -20 -4
-20 10 -20 -20 -20 31 13 21 19 -20 -20 -20 -20 -20 -20 -20 9 -1 -18 -7 -20 -20 -20 -20 -20 -20 -20 3 -11 -19 -20 -8 -20 -20 -20 -18 -20 -20 -20 -20 -20 -20 -20 -20 -20 -20 -20 -10 10
-20 -20 -20 -20 -20 -20 -19 -11 -20 -20 -20 5 -6 -20 -20 -20 -13 -6 -14 -20 -20 -20 -20 -20 -20 -20 -20 -17 -19 -20 -20 -20 -7 10 -12 -20 -20 -20 -20 -20 -20 -20 -20 -20 -20 -20 -20 -2 23
-20 -20 -20 -20 -20 -19 -14 -13 -20 -14 20 -18 -19 -20 -20 -20 -20 14 -1 -20 3 -20 -20 -20 -20 -20 -20 -20 -20 -20 -20 -20 -8 4 8 -20 -17 -20 -20 -20 -20 -20 -13 14 -20 -20 23 -15 9
-20 -20 -20 -20 -20 -20 -20 3 9 -16 12 -20 -17 -20 -20 -20 -20 -20 -20 -20 -20 -20 -20 -20 -20 -20 -20 -20 -20 -20 -19 -5 -17 -1 -20 -19 -20 -20 -20 -20 -20 -20 -20 -20 -17 -18 31 26 36
-20 -20 -20 -20 -20 -20 -20 -8 -20 -20 -18 -14 -20 -20 -20 -20 -20 -20 -20 -20 -20 -20 -20 -20 -20 -20 -20 -20 -20 -13 -19 -20 -0 -19 -8 -15 -16 -20 -20 -2 -20 -20 32 -11 1 28 -10 12 16
-20 -20 -20 -20 -20 -20 -20 -20 28 -20 -16 6 -20 -20 -20 -20 -20 -20 -20 -20 -20 -20 -20 -20 -20 -20 -20 -20 -20 -20 -20 -20 -20 -20 -8 19 -4 14 3 17 -20 -20 -20 30 -7 7 26 -20 2
-20 -20 -5 -20 -20 -20 -20 -20 -20 -14 15 -1 -20 -8 -20 -20 8 -16 -20 -20 -20 -20 -20 -20 -20 -20 -20 -20 -20 -20 -20 -20 -20 -20 -10 -20 -20 -20 -20 -20 -20 -20 -20 -20 -19 -18 -16 -20 -20
-16 -20 2 -19 -20 -20 -20 -20 -20 -20 -20 -14 -20 -20 -20 -20 -20 -20 -20 -20 -20 -20 -20 -20 -20 -20 -20 -20 -20 -20 7 -20 -20 -20 -20 22 -19 -20 -20 -20 -20 -20 -20 -20 -20 -20 -20 -20 -20
-19 -20 -20 -20 -20 -20 -20 -20 18 -20 -9 -6 2 -15 -20 -20 -20 0 -20 -20 -20 -20 -20 -20 -20 -20 -20 -20 -20 -20 -20 -20 13 -18 -20 14 -5 -20 -20 -20 -20 -20 -20 -20 -20 -20 -20 -3 -20
-19 -20 -20 -20 -20 -20 -20 28 39 28 21 -3 -17 -19 -20 -20 -20 -20 -20 -20 -20 -20 -20 -20 -20 -20 -20 -20 -20 -20 -20 -20 28 -20 -20 -20 -20 -20 -20 -3 -20 -20 -20 -20 -20 -20 11 -6 8
-20 -20 -17 -20 -20 -20 -20 -8 45 31 19 32 -20 25 -20 -20 -20 -20 -20 -20 -20 -20 -20 -20 -20 -20 -20 -20 -20 -20 -20 -20 7 -20 27 -2 -20 -20 -20 -20 1 -20 -20 -20 -20 -13 -20 -20 6
-20 -20 5 -20 -20 -20 -20 -12 8 10 -20 -20 -20 -20 -20 -20 -20 -20 -20 -20 -20 -20 -20 -20 -20 -20 -20 -20 -20 -20 -16 -20 19 -2 19 -20 -20 -20 -20 -20 -20 -20 -20 -6 19 -20 -20 -3 -12
-20 -18 -14 -20 -20 -11 -20 -20 -19 -20 -0 -20 -20 -20 -20 -20 -20 -20 -20 -20 -20 -20 -20 -20 -20 -20 -20 -20 -5 -20 -20 -20 -20 -10 9 -0 -20 -20 -20 -20 -20 -20 -20 6 23 -17 -20 -19 -20
-20 -17 -17 -20 -20 -17 -20 -20 -20 -1 4 12 -7 -20 -20 -20 -20 -20 -20 -20 -20 -20 -20 -20 -20 -20 -20 -20 -20 -20 -20 -20 -20 -20 -20 -20 -20 -20 -20 -20 -20 -19 -20 11 6 -11 -20 -18 -15
-20 -20 -20 -20 -14 -20 -20 10 -2 -18 -20 -20 -3 -20 -20 -20 -20 -20 -20 -20 -20 -20 -20 -20 -20 -20 -20 -20 -20 -20 -20 -20 -20 -20 -20 -20 -20 -20 -20 -20 -20 -19 -20 -3 -20 -20 -20 -17 5
-20 -20 -20 -20 6 20 -20 -20 -20 -20 -20 -20 -20 -9 -16 -20 -20 -20 -20 -20 -20 -20 -17 -20 -20 -20 -20 -20 -20 -20 -20 -20 -20 -19 -19 -20 -20 -20 -20 -20 -20 -20 -20 -20 -20 -20 -20 -20 -14
-20 -20 -20 -20 6 -19 -1 -20 -20 -10 -20 -20 -20 -20 -20 -20 -19 -20 -20 -20 -20 -20 -20 -20 -20 -20 -20 -20 -20 -20 -20 -20 -20 -20 -20 -20 -20 -20 -20 -20 -20 -20 -20 -20 -20 -20 -20 -20 -20
-20 -20 -20 -20 -20 -20 5 -19 -20 -16 5 24 -20 28 -20 -20 -20 -20 -20 -20 -20 -20 -20 -20 -20 -20 -20 -20 -20 -20 -20 -20 -20 -20 -20 -20 -20 -20 -20 -20 -20 -20 -20 -20 -20 -20 -20 -20 -20
-20 -20 -20 -20 -20 -20 -4 24 15 -20 -20 41 19 1 -13 -20 -20 -20 -20 -20 -20 -20 -20 -20 -20 -20 -20 -20 -20 -20 -20 -20 -20 -20 -20 -18 -20 -20 -20 -20 -20 -20 -20 -20 -20 -20 -20 -20 -20
-20 -20 -20 -20 -20 -20 -20 -20 -20 -20 -20 -12 20 3 -20 26 -19 -20 -20 -20 -20 -20 -20 -20 -20 -20 -20 -20 -20 -20 -20 -20 -20 -20 -20 -20 -20 -20 -20 -19 -18 -20 -20 -20 -20 -20 -20 -20 -20
-20 -20 -20 -20 -20 -20 -20 -20 -20 -20 -20 -20 -12 -20 -20 -20 -20 -20 -20 -20 -20 -20 -20 -20 -20 -20 -20 -20 -20 -20 -20 -20 -20 -20 -20 -20 -20 -20 -20 -20 -16 -20 -20 -20 -20 -20 -20 -20 -20
-20 8 -15 -20 -20 -20 -20 -20 -20 -20 0 -20 -20 -20 -20 -20 -20 -20 -20 -20 -20 -20 -20 -20 -20 -20 -20 -20 -20 -20 -20 -20 -20 -20 -20 -20 -20 -20 -20 -20 -20 -20 -20 -20 -20 -20 -20 -20 -20
Wind_Speed
6 6 3 3 4 2 3 5 3 8 6 4 18 15 15 11 3 5 9 18 17 13 10 11 13 14 14 15 16 16 14 13 11 10 9 9 8 7 7 6 7 7 7 7 8 8 8 7 7
5 8 3 2 5 4 3 13 12 9 5 11 21 21 19 14 13 14 12 17 18 13 9 8 14 16 16 15 16 14 14 11 8 8 8 8 7 7 8 6 7 7 7 7 9 8 7 7 6
6 9 2 5 3 5 6 12 16 8 10 7 14 14 7 7 14 5 15 19 15 14 10 11 15 15 15 15 16 15 12 10 9 9 9 8 7 6 5 7 6 7 6 8 8 8 7 6 6
4 2 3 4 6 4 6 19 22 8 6 9 15 11 5 6 8 8 19 17 17 15 11 13 16 16 16 16 16 16 13 12 12 11 10 8 7 3 1 4 4 5 5 6 6 6 6 5 5
5 1 1 1 7 5 15 18 22 1 3 8 15 7 12 12 22 21 20 18 17 12 10 10 16 15 15 16 16 15 14 13 12 11 8 6 3 2 2 3 4 3 4 5 5 5 5 4 4
4 1 3 3 8 5 7 13 27 5 6 13 20 12 5 17 18 16 18 17 15 12 8 8 17 15 18 15 16 15 12 13 10 8 7 4 2 2 3 3 4 4 3 3 3 4 3 5 7
3 3 2 3 3 8 7 13 6 8 6 9 14 7 6 10 12 15 15 16 16 12 8 6 5 13 13 13 12 16 12 11 9 7 5 1 2 4 3 2 3 3 3 3 4 4 6 8 6
2 3 3 3 5 4 8 6 14 5 1 7 15 7 8 5 14 16 14 13 13 12 8 6 5 6 6 6 11 13 11 13 9 8 6 3 3 6 6 5 5 6 6 5 6 7 6 6 7
5 1 1 1 1 8 13 6 8 11 14 17 14 14 18 11 16 15 11 9 10 7 8 8 6 6 5 6 6 10 11 10 10 7 6 2 1 4 6 7 10 10 9 8 8 6 7 5 9
4 3 7 6 3 9 12 9 9 8 5 15 17 17 19 16 14 14 13 10 9 10 8 7 6 6 6 5 5 4 5 3 4 2 2 2 3 4 8 9 13 12 11 9 9 7 9 3 5
3 1 2 3 2 2 5 5 5 7 3 7 20 17 15 13 13 15 13 13 11 10 8 9 9 9 7 5 4 1 1 2 2 3 1 1 3 3 5 2 3 3 9 1 3 2 3 3 4
5 4 4 5 4 4 5 5 7 5 5 14 14 20 17 16 12 12 13 11 10 12 11 10 10 9 6 4 3 4 3 2 2 1 1 0 2 3 4 3 5 4 3 5 4 4 2 4 4
3 3 4 2 3 5 4 4 6 9 9 4 12 16 14 13 9 11 13 14 14 12 10 10 9 10 8 7 3 5 4 3 1 3 3 2 2 4 2 6 5 3 4 5 4 7 4 5 3
4 5 12 6 3 2 2 4 8 3 6 10 21 17 15 15 13 14 12 12 11 13 13 10 9 9 10 7 7 5 3 1 2 4 4 7 4 5 5 6 2 3 1 5 4 4 2 4 4
5 3 12 6 5 3 4 2 5 8 9 11 10 15 15 12 12 13 17 16 16 13 12 12 11 10 10 8 7 4 4 4 4 5 5 6 4 7 6 2 1 4 1 7 7 1 3 3 3
3 2 2 10 10 5 4 5 5 10 12 11 7 11 15 10 18 17 12 13 14 13 14 11 10 11 9 7 6 5 4 4 3 3 2 5 13 7 1 2 2 4 5 3 3 2 3 5 4
8 12 9 8 13 8 7 3 9 8 9 6 9 10 8 7 8 17 12 15 15 12 11 10 8 9 9 7 6 6 5 4 4 1 4 8 8 3 1 1 4 3 5 3 2 1 2 1 3
11 9 7 9 14 8 14 11 19 8 3 10 12 7 9 8 8 18 16 17 15 11 9 9 8 8 7 6 4 3 4 4 3 4 6 9 4 5 3 2 3 4 2 1 2 1 0 3 3
18 10 11 2 11 7 20 13 6 14 13 21 18 6 13 10 7 14 17 16 15 11 11 9 9 7 6 3 3 2 3 3 3 4 6 2 4 4 3 1 4 4 4 4 4 3 2 2 2
11 11 11 4 12 8 13 5 5 5 9 12 9 13 12 11 10 12 18 18 16 13 9 10 10 8 6 4 3 3 4 2 2 1 6 3 5 4 3 1 4 4 1 5 3 2 2 2 0
9 6 4 5 3 9 4 4 3 7 9 7 13 9 15 16 18 14 21 20 18 16 13 10 10 10 7 7 3 2 1 1 3 3 4 5 6 5 4 1 5 1 2 4 5 4 5 4 1
9 10 4 6 7 5 9 6 8 8 7 8 16 12 11 16 18 15 19 19 19 17 15 11 12 10 7 7 4 4 3 3 4 4 2 4 6 5 5 5 5 4 3 6 6 0 3 3 2
8 9 7 6 3 5 3 6 12 5 11 10 18 16 14 15 20 19 20 22 19 18 17 14 11 9 8 8 7 5 5 3 3 1 6 4 1 6 6 5 5 4 2 1 1 3 3 2 3
11 5 8 8 4 9 7 9 6 6 10 3 9 17 14 12 18 19 19 20 19 18 17 16 14 11 9 8 8 8 7 4 1 2 3 4 2 3 4 5 4 2 1 1 2 3 2 2 1
6 3 5 6 2 11 13 8 12 12 16 12 9 17 15 10 17 20 20 20 20 20 19 16 17 13 11 9 8 8 8 6 7 5 5 4 2 2 5 4 5 4 3 3 2 1 3 4 2
6 4 4 5 4 10 17 6 10 12 12 16 13 12 13 10 18 20 22 21 22 21 20 20 18 16 14 9 9 7 8 4 4 4 3 3 4 4 6 6 5 5 5 5 4 3 3 3 4
9 5 12 5 7 5 5 6 12 17 23 16 12 10 14 10 18 21 20 20 22 20 20 21 19 16 15 12 10 8 7 7 6 7 6 5 5 4 6 3 1 3 3 6 5 3 2 1 3
10 7 5 5 3 6 7 7 7 6 12 8 4 9 18 15 11 19 19 20 19 21 19 20 20 19 17 15 11 10 8 7 7 5 6 7 7 6 7 6 6 5 4 5 5 2 2 2 3
4 4 5 5 5 4 3 8 8 11 13 14 19 8 19 17 16 18 19 19 18 19 19 18 19 18 15 15 14 12 9 8 7 6 6 5 6 6 6 7 7 6 6 6 5 5 4 4 4
7 6 4 5 8 4 6 8 6 13 17 18 12 13 15 19 18 13 21 19 17 20 18 18 18 17 17 16 14 14 12 11 10 8 7 6 7 6 7 9 8 6 6 5 5 6 5 6 6
Wind_Direction
197 165 214 307 26 346 22 351 69 69 66 68 68 74 77 43 75 129 123 118 121 119 126 126 121 117 120 124 121 119 117 116 112 118 120 119 120 127 127 133 148 150 163 158 143 130 123 126 144
212 207 196 145 87 338 343 294 72 73 101 91 97 91 75 71 87 113 106 124 119 129 118 120 124 119 119 118 118 121 117 118 122 117 112 115 126 133 130 136 148 155 163 158 124 123 139 148 130
249 244 179 84 33 10 288 303 329 75 47 75 97 96 79 112 114 103 131 124 133 117 112 122 119 116 117 116 118 120 120 119 112 110 112 109 122 111 116 131 141 168 174 126 124 129 132 151 143
249 171 312 80 154 230 257 280 284 57 38 73 106 80 79 178 104 117 146 139 111 115 112 112 108 114 116 117 117 119 119 120 111 108 103 98 86 125 102 136 138 158 142 104 125 128 135 168 166
261 306 19 233 135 178 278 293 305 122 147 92 99 87 78 85 113 114 105 106 109 105 118 123 124 118 114 119 118 120 122 120 129 130 124 87 58 351 40 133 143 151 124 134 127 136 154 189 203
282 99 42 340 90 11 309 269 268 70 96 96 107 100 83 130 122 121 118 116 118 120 114 112 122 126 124 124 123 119 127 128 136 138 121 78 323 273 286 151 157 156 167 139 150 188 193 231 243
213 153 207 280 355 149 295 286 310 94 88 73 134 100 134 126 135 126 128 126 129 129 135 135 130 128 123 117 121 117 136 145 143 157 125 106 290 258 283 205 192 197 211 182 212 222 237 253 272
303 85 24 17 22 35 237 273 284 98 145 97 136 131 152 147 112 123 134 129 130 143 149 151 154 143 158 139 136 130 137 150 165 184 160 185 290 262 244 220 223 218 226 228 237 242 262 286 316
316 336 293 229 212 182 248 279 314 72 68 51 64 122 129 143 121 114 113 122 137 137 154 159 154 145 140 115 149 141 145 150 161 174 170 180 295 266 247 219 223 220 232 238 251 276 278 284 65
215 150 216 203 219 181 200 233 319 64 71 89 106 118 139 140 140 138 148 147 153 155 155 142 136 135 120 134 121 110 129 133 181 180 197 63 346 288 255 232 227 219 236 244 258 258 276 288 110
232 275 281 301 339 284 161 185 264 92 9 107 131 138 144 146 151 154 153 160 159 162 155 165 164 130 127 131 126 103 156 181 183 206 202 80 282 278 266 235 216 210 244 176 313 100 235 28 81
229 203 295 4 318 274 295 194 130 123 156 148 143 156 157 156 166 155 154 169 161 160 157 166 142 133 131 142 151 165 184 186 208 250 85 322 343 308 264 264 230 215 248 123 214 202 6 47 199
208 120 326 165 321 275 294 298 71 76 134 276 167 154 159 169 176 155 153 155 153 154 155 161 148 142 145 168 158 179 184 202 180 260 207 136 247 266 302 254 219 221 203 161 219 33 12 284 58
32 11 334 146 193 204 253 247 101 340 342 343 156 167 172 175 175 149 147 162 165 158 159 153 150 141 156 173 180 183 193 184 276 268 222 218 179 217 258 240 202 213 248 117 140 181 156 281 292
71 20 325 232 185 211 119 36 165 192 177 241 195 171 177 185 154 165 166 175 165 153 152 153 159 157 163 171 179 185 188 203 213 223 230 261 217 231 236 237 244 241 19 85 110 185 238 104 346
338 14 311 182 182 145 164 231 226 180 186 240 282 154 172 194 176 172 147 135 147 146 160 157 164 170 160 166 177 197 201 209 226 269 216 213 251 219 32 330 203 207 87 133 120 196 332 35 320
288 262 223 157 172 144 191 146 217 225 215 281 301 152 156 157 134 134 152 147 145 145 148 155 164 162 168 172 166 196 182 198 176 250 270 255 186 162 224 325 268 184 131 161 168 19 182 29 319
256 284 312 140 190 159 199 56 351 241 78 277 269 199 151 165 160 140 140 130 145 147 155 151 164 160 154 137 180 210 143 191 182 260 263 243 175 175 186 349 282 119 98 125 173 160 65 198 40
258 277 290 168 172 118 95 95 251 217 165 232 237 233 167 173 160 139 138 138 144 152 150 159 143 144 138 146 158 170 170 185 156 217 233 151 177 170 134 344 325 18 69 84 265 219 134 356 19
261 275 289 130 151 116 133 181 208 164 190 206 202 226 174 172 161 137 145 151 153 152 153 146 146 151 164 173 198 164 174 166 137 95 258 212 170 148 128 36 21 105 78 18 337 27 108 113 318
269 264 10 339 93 48 72 69 357 258 225 212 218 210 181 181 170 161 159 159 158 154 160 161 161 164 180 191 175 116 135 67 120 182 226 230 173 158 149 150 137 142 81 33 323 313 89 120 93
271 290 350 345 4 89 83 299 291 253 265 227 202 207 184 186 174 171 162 160 164 167 165 161 164 171 195 185 176 159 173 181 221 199 168 215 172 172 171 192 162 162 172 144 240 340 73 92 17
274 310 340 322 7 77 3 93 265 8 287 240 201 203 189 180 177 178 169 159 166 166 168 165 163 169 180 195 184 186 185 205 17 149 124 102 195 182 199 212 186 180 233 30 37 78 42 63 108
256 324 307 280 75 319 214 146 278 220 230 216 233 202 201 180 185 172 165 158 163 167 165 163 166 182 188 181 185 194 207 185 224 172 141 134 66 329 237 221 213 210 241 85 37 10 32 278 277
307 318 311 340 117 236 119 138 233 251 248 224 230 197 205 200 180 173 164 164 165 168 164 165 168 182 190 179 182 195 215 183 192 178 180 146 168 260 255 194 203 180 202 199 151 339 239 236 243
249 213 183 284 274 288 129 195 258 234 60 5 323 271 193 175 182 177 169 165 169 172 172 169 173 177 186 179 187 199 201 174 182 199 184 182 188 217 221 180 177 203 196 222 195 204 240 234 238
247 265 240 278 282 320 192 182 42 123 109 186 248 237 208 174 166 169 171 168 172 173 175 172 175 178 184 189 183 195 197 183 198 206 193 203 199 191 202 163 165 283 268 216 203 194 270 320 259
174 215 0 339 331 306 304 303 178 120 160 209 285 230 195 186 177 175 176 178 173 175 173 170 176 178 183 186 187 196 201 189 199 217 216 192 202 173 181 170 194 215 239 221 190 195 247 191 253
255 237 242 173 166 195 282 282 186 177 175 170 213 235 182 187 188 177 184 182 178 173 171 171 177 178 182 186 191 190 195 199 195 202 221 220 207 181 177 170 212 198 229 218 199 206 210 245 259
286 216 203 131 278 249 176 267 161 166 190 193 204 226 166 185 191 182 177 179 178 176 176 170 176 180 180 185 187 192 188 197 196 196 203 214 214 201 177 180 206 209 208 216 201 219 227 233 232